1587852015,2020-04-26 00:00,551.00,-33
1587852075,2020-04-26 00:01,553.00,-35
1587852135,2020-04-26 00:02,554.00,-33
1587852196,2020-04-26 00:03,552.00,-30
1587852256,2020-04-26 00:04,552.00,-28
1587852316,2020-04-26 00:05,549.00,-34
1587852376,2020-04-26 00:06,550.00,-36
1587852437,2020-04-26 00:07,550.00,-34
1587852497,2020-04-26 00:08,552.00,-33
1587852557,2020-04-26 00:09,552.00,-34
1587852618,2020-04-26 00:10,554.00,-31
1587852678,2020-04-26 00:11,550.00,-33
1587852738,2020-04-26 00:12,551.00,-31
1587852798,2020-04-26 00:13,551.00,-30
1587852859,2020-04-26 00:14,552.00,-33
1587853079,2020-04-26 00:17,553.00,-29
1587853139,2020-04-26 00:18,553.00,-34
1587853200,2020-04-26 00:20,555.00,-29
1587853260,2020-04-26 00:21,554.00,-31
1587853320,2020-04-26 00:22,554.00,-34
1587853381,2020-04-26 00:23,551.00,-36
1587853441,2020-04-26 00:24,552.00,-32
1587853501,2020-04-26 00:25,553.00,-33
1587853561,2020-04-26 00:26,552.00,-34
1587853622,2020-04-26 00:27,553.00,-28
1587853682,2020-04-26 00:28,549.00,-36
1587853742,2020-04-26 00:29,553.00,-33
1587853802,2020-04-26 00:30,557.00,-32
1587853863,2020-04-26 00:31,559.00,-32
1587853923,2020-04-26 00:32,554.00,-32
1587853983,2020-04-26 00:33,551.00,-31
1587854044,2020-04-26 00:34,557.00,-34
1587854104,2020-04-26 00:35,551.00,-32
1587854164,2020-04-26 00:36,552.00,-30
1587854224,2020-04-26 00:37,553.00,-30
1587854285,2020-04-26 00:38,555.00,-38
1587854345,2020-04-26 00:39,555.00,-30
1587854405,2020-04-26 00:40,553.00,-29
1587854465,2020-04-26 00:41,553.00,-32
1587854526,2020-04-26 00:42,553.00,-32
1587854586,2020-04-26 00:43,554.00,-34
1587854646,2020-04-26 00:44,553.00,-31
1587854707,2020-04-26 00:45,552.00,-30
1587854767,2020-04-26 00:46,553.00,-36
1587854827,2020-04-26 00:47,552.00,-32
1587854887,2020-04-26 00:48,553.00,-31
1587854948,2020-04-26 00:49,556.00,-33
1587855008,2020-04-26 00:50,557.00,-30
1587855068,2020-04-26 00:51,552.00,-36
1587855128,2020-04-26 00:52,555.00,-32
1587855189,2020-04-26 00:53,554.00,-36
1587855249,2020-04-26 00:54,551.00,-33
1587855309,2020-04-26 00:55,557.00,-36
1587855370,2020-04-26 00:56,555.00,-40
1587855430,2020-04-26 00:57,557.00,-40
1587855490,2020-04-26 00:58,557.00,-36
1587855550,2020-04-26 00:59,554.00,-37
1587855611,2020-04-26 01:00,554.00,-30
1587855671,2020-04-26 01:01,553.00,-31
1587855731,2020-04-26 01:02,558.00,-32
1587855791,2020-04-26 01:03,553.00,-33
1587855852,2020-04-26 01:04,553.00,-30
1587855912,2020-04-26 01:05,556.00,-34
1587855972,2020-04-26 01:06,557.00,-35
1587856033,2020-04-26 01:07,556.00,-31
1587856093,2020-04-26 01:08,556.00,-32
1587856153,2020-04-26 01:09,559.00,-34
1587856213,2020-04-26 01:10,555.00,-34
1587856274,2020-04-26 01:11,555.00,-33
1587856334,2020-04-26 01:12,557.00,-32
1587856394,2020-04-26 01:13,557.00,-30
1587856454,2020-04-26 01:14,555.00,-33
1587856515,2020-04-26 01:15,555.00,-34
1587856575,2020-04-26 01:16,556.00,-33
1587856635,2020-04-26 01:17,558.00,-29
1587856696,2020-04-26 01:18,557.00,-33
1587856756,2020-04-26 01:19,558.00,-30
1587856816,2020-04-26 01:20,559.00,-30
1587856876,2020-04-26 01:21,558.00,-30
1587856937,2020-04-26 01:22,559.00,-32
1587856997,2020-04-26 01:23,557.00,-34
1587857057,2020-04-26 01:24,558.00,-32
1587857118,2020-04-26 01:25,558.00,-32
1587857178,2020-04-26 01:26,557.00,-37
1587857238,2020-04-26 01:27,558.00,-33
1587857298,2020-04-26 01:28,560.00,-33
1587857359,2020-04-26 01:29,557.00,-30
1587857419,2020-04-26 01:30,557.00,-34
1587857479,2020-04-26 01:31,557.00,-31
1587857539,2020-04-26 01:32,558.00,-38
1587857600,2020-04-26 01:33,557.00,-34
1587857660,2020-04-26 01:34,554.00,-31
1587857720,2020-04-26 01:35,555.00,-33
1587857781,2020-04-26 01:36,558.00,-31
1587857841,2020-04-26 01:37,554.00,-33
1587857901,2020-04-26 01:38,553.00,-30
1587857961,2020-04-26 01:39,555.00,-37
1587858021,2020-04-26 01:40,559.00,-39
1587858081,2020-04-26 01:41,558.00,-35
1587858141,2020-04-26 01:42,557.00,-35
1587858201,2020-04-26 01:43,560.00,-36
1587858261,2020-04-26 01:44,557.00,-37
1587858321,2020-04-26 01:45,559.00,-36
1587858381,2020-04-26 01:46,557.00,-34
1587858442,2020-04-26 01:47,559.00,-36
1587858502,2020-04-26 01:48,556.00,-34
1587858562,2020-04-26 01:49,557.00,-31
1587858622,2020-04-26 01:50,556.00,-33
1587858682,2020-04-26 01:51,557.00,-36
1587858742,2020-04-26 01:52,557.00,-37
1587858802,2020-04-26 01:53,555.00,-37
1587858862,2020-04-26 01:54,557.00,-34
1587858922,2020-04-26 01:55,555.00,-33
1587858982,2020-04-26 01:56,560.00,-33
1587859042,2020-04-26 01:57,556.00,-36
1587859102,2020-04-26 01:58,555.00,-34
1587859162,2020-04-26 01:59,556.00,-34
1587859223,2020-04-26 02:00,557.00,-28
1587859283,2020-04-26 02:01,554.00,-28
1587859343,2020-04-26 02:02,556.00,-32
1587859403,2020-04-26 02:03,554.00,-35
1587859463,2020-04-26 02:04,556.00,-36
1587859523,2020-04-26 02:05,556.00,-30
1587859778,2020-04-26 02:09,559.00,-29
1587859838,2020-04-26 02:10,560.00,-30
1587859898,2020-04-26 02:11,559.00,-29
1587859959,2020-04-26 02:12,560.00,-30
1587860019,2020-04-26 02:13,557.00,-28
1587860079,2020-04-26 02:14,559.00,-33
1587860139,2020-04-26 02:15,558.00,-33
1587860200,2020-04-26 02:16,558.00,-32
1587860260,2020-04-26 02:17,562.00,-33
1587860320,2020-04-26 02:18,560.00,-33
1587860380,2020-04-26 02:19,559.00,-33
1587860441,2020-04-26 02:20,556.00,-35
1587860501,2020-04-26 02:21,561.00,-31
1587860561,2020-04-26 02:22,558.00,-35
1587860621,2020-04-26 02:23,559.00,-31
1587860682,2020-04-26 02:24,557.00,-36
1587860742,2020-04-26 02:25,560.00,-28
1587860802,2020-04-26 02:26,563.00,-29
1587860862,2020-04-26 02:27,558.00,-32
1587860922,2020-04-26 02:28,560.00,-33
1587860983,2020-04-26 02:29,562.00,-37
1587861043,2020-04-26 02:30,559.00,-29
1587861103,2020-04-26 02:31,564.00,-29
1587861164,2020-04-26 02:32,560.00,-35
1587861224,2020-04-26 02:33,562.00,-34
1587861284,2020-04-26 02:34,557.00,-34
1587861344,2020-04-26 02:35,560.00,-33
1587861405,2020-04-26 02:36,559.00,-32
1587861465,2020-04-26 02:37,556.00,-32
1587861525,2020-04-26 02:38,558.00,-31
1587861585,2020-04-26 02:39,558.00,-31
1587861646,2020-04-26 02:40,559.00,-35
1587861706,2020-04-26 02:41,562.00,-31
1587861766,2020-04-26 02:42,559.00,-32
1587861827,2020-04-26 02:43,561.00,-34
1587861887,2020-04-26 02:44,560.00,-32
1587861947,2020-04-26 02:45,559.00,-35
1587862007,2020-04-26 02:46,558.00,-36
1587862068,2020-04-26 02:47,558.00,-31
1587862128,2020-04-26 02:48,561.00,-30
1587862188,2020-04-26 02:49,557.00,-31
1587862248,2020-04-26 02:50,560.00,-31
1587862309,2020-04-26 02:51,559.00,-31
1587862369,2020-04-26 02:52,561.00,-31
1587862429,2020-04-26 02:53,561.00,-32
1587862490,2020-04-26 02:54,558.00,-36
1587862550,2020-04-26 02:55,559.00,-34
1587862610,2020-04-26 02:56,561.00,-34
1587862670,2020-04-26 02:57,561.00,-32
1587862731,2020-04-26 02:58,560.00,-32
1587862791,2020-04-26 02:59,559.00,-29
1587862851,2020-04-26 03:00,559.00,-32
1587862911,2020-04-26 03:01,560.00,-34
1587862972,2020-04-26 03:02,556.00,-36
1587863032,2020-04-26 03:03,560.00,-30
1587863092,2020-04-26 03:04,558.00,-31
1587863153,2020-04-26 03:05,558.00,-32
1587863213,2020-04-26 03:06,559.00,-33
1587863273,2020-04-26 03:07,558.00,-31
1587863333,2020-04-26 03:08,559.00,-36
1587863394,2020-04-26 03:09,562.00,-35
1587863454,2020-04-26 03:10,561.00,-33
1587863514,2020-04-26 03:11,564.00,-37
1587863574,2020-04-26 03:12,559.00,-32
1587863635,2020-04-26 03:13,561.00,-36
1587863695,2020-04-26 03:14,559.00,-30
1587863755,2020-04-26 03:15,560.00,-34
1587863816,2020-04-26 03:16,558.00,-29
1587863876,2020-04-26 03:17,561.00,-31
1587863936,2020-04-26 03:18,561.00,-31
1587863996,2020-04-26 03:19,559.00,-30
1587864057,2020-04-26 03:20,561.00,-31
1587864117,2020-04-26 03:21,560.00,-29
1587864177,2020-04-26 03:22,559.00,-32
1587864237,2020-04-26 03:23,562.00,-34
1587864298,2020-04-26 03:24,558.00,-32
1587864358,2020-04-26 03:25,559.00,-35
1587864418,2020-04-26 03:26,558.00,-35
1587864479,2020-04-26 03:27,558.00,-32
1587864539,2020-04-26 03:28,560.00,-31
1587864599,2020-04-26 03:29,560.00,-36
1587864659,2020-04-26 03:30,558.00,-37
1587864720,2020-04-26 03:32,563.00,-34
1587864780,2020-04-26 03:33,563.00,-33
1587864840,2020-04-26 03:34,562.00,-36
1587864900,2020-04-26 03:35,561.00,-37
1587864961,2020-04-26 03:36,563.00,-32
1587865021,2020-04-26 03:37,562.00,-34
1587865081,2020-04-26 03:38,560.00,-35
1587865142,2020-04-26 03:39,563.00,-35
1587865202,2020-04-26 03:40,563.00,-37
1587865262,2020-04-26 03:41,564.00,-37
1587865322,2020-04-26 03:42,559.00,-35
1587865383,2020-04-26 03:43,561.00,-35
1587865443,2020-04-26 03:44,561.00,-29
1587865503,2020-04-26 03:45,565.00,-30
1587865563,2020-04-26 03:46,563.00,-29
1587865624,2020-04-26 03:47,560.00,-31
1587865684,2020-04-26 03:48,559.00,-34
1587865744,2020-04-26 03:49,564.00,-35
1587865805,2020-04-26 03:50,561.00,-30
1587865865,2020-04-26 03:51,563.00,-33
1587865925,2020-04-26 03:52,562.00,-35
1587865985,2020-04-26 03:53,560.00,-32
1587866046,2020-04-26 03:54,563.00,-32
1587866106,2020-04-26 03:55,560.00,-31
1587866166,2020-04-26 03:56,563.00,-29
1587866226,2020-04-26 03:57,563.00,-34
1587866287,2020-04-26 03:58,564.00,-31
1587866347,2020-04-26 03:59,563.00,-30
1587866407,2020-04-26 04:00,563.00,-32
1587866467,2020-04-26 04:01,564.00,-31
1587866528,2020-04-26 04:02,565.00,-35
1587866588,2020-04-26 04:03,565.00,-28
1587866648,2020-04-26 04:04,564.00,-38
1587866708,2020-04-26 04:05,560.00,-32
1587866769,2020-04-26 04:06,560.00,-31
1587866829,2020-04-26 04:07,560.00,-32
1587866889,2020-04-26 04:08,560.00,-30
1587866950,2020-04-26 04:09,566.00,-31
1587867010,2020-04-26 04:10,565.00,-32
1587867070,2020-04-26 04:11,564.00,-31
1587867130,2020-04-26 04:12,564.00,-34
1587867191,2020-04-26 04:13,564.00,-35
1587867251,2020-04-26 04:14,563.00,-32
1587867311,2020-04-26 04:15,562.00,-33
1587867371,2020-04-26 04:16,562.00,-33
1587867432,2020-04-26 04:17,565.00,-33
1587867492,2020-04-26 04:18,560.00,-34
1587867552,2020-04-26 04:19,564.00,-36
1587867613,2020-04-26 04:20,563.00,-35
1587867673,2020-04-26 04:21,564.00,-38
1587867733,2020-04-26 04:22,564.00,-34
1587867793,2020-04-26 04:23,559.00,-30
1587867854,2020-04-26 04:24,563.00,-31
1587867914,2020-04-26 04:25,559.00,-33
1587867974,2020-04-26 04:26,563.00,-34
1587868034,2020-04-26 04:27,564.00,-35
1587868095,2020-04-26 04:28,560.00,-33
1587868155,2020-04-26 04:29,562.00,-32
1587868215,2020-04-26 04:30,562.00,-33
1587868276,2020-04-26 04:31,562.00,-32
1587868336,2020-04-26 04:32,564.00,-33
1587868396,2020-04-26 04:33,565.00,-35
1587868456,2020-04-26 04:34,564.00,-29
1587868517,2020-04-26 04:35,565.00,-32
1587868577,2020-04-26 04:36,566.00,-33
1587868637,2020-04-26 04:37,566.00,-30
1587868697,2020-04-26 04:38,566.00,-31
1587868758,2020-04-26 04:39,567.00,-30
1587868818,2020-04-26 04:40,567.00,-37
1587868878,2020-04-26 04:41,568.00,-31
1587868939,2020-04-26 04:42,567.00,-33
1587868999,2020-04-26 04:43,563.00,-32
1587869059,2020-04-26 04:44,566.00,-30
1587869119,2020-04-26 04:45,566.00,-36
1587869180,2020-04-26 04:46,564.00,-35
1587869240,2020-04-26 04:47,567.00,-31
1587869300,2020-04-26 04:48,569.00,-37
1587869361,2020-04-26 04:49,566.00,-30
1587869421,2020-04-26 04:50,567.00,-29
1587869481,2020-04-26 04:51,564.00,-33
1587869541,2020-04-26 04:52,566.00,-31
1587869601,2020-04-26 04:53,565.00,-31
1587869661,2020-04-26 04:54,563.00,-32
1587869721,2020-04-26 04:55,565.00,-34
1587869781,2020-04-26 04:56,564.00,-31
1587869841,2020-04-26 04:57,564.00,-39
1587869902,2020-04-26 04:58,566.00,-36
1587869962,2020-04-26 04:59,563.00,-29
1587870022,2020-04-26 05:00,565.00,-31
1587870082,2020-04-26 05:01,567.00,-37
1587870142,2020-04-26 05:02,566.00,-32
1587870202,2020-04-26 05:03,567.00,-31
1587870262,2020-04-26 05:04,565.00,-39
1587870322,2020-04-26 05:05,564.00,-32
1587870382,2020-04-26 05:06,567.00,-36
1587870442,2020-04-26 05:07,567.00,-31
1587870502,2020-04-26 05:08,565.00,-32
1587870562,2020-04-26 05:09,566.00,-39
1587870623,2020-04-26 05:10,567.00,-32
1587870683,2020-04-26 05:11,570.00,-31
1587870743,2020-04-26 05:12,568.00,-35
1587870803,2020-04-26 05:13,566.00,-35
1587870863,2020-04-26 05:14,569.00,-31
1587870923,2020-04-26 05:15,566.00,-32
1587870983,2020-04-26 05:16,567.00,-30
1587871043,2020-04-26 05:17,568.00,-32
1587871103,2020-04-26 05:18,569.00,-31
1587871163,2020-04-26 05:19,569.00,-34
1587871223,2020-04-26 05:20,566.00,-32
1587871283,2020-04-26 05:21,569.00,-34
1587871344,2020-04-26 05:22,566.00,-34
1587871404,2020-04-26 05:23,567.00,-32
1587871464,2020-04-26 05:24,568.00,-29
1587871524,2020-04-26 05:25,569.00,-33
1587871584,2020-04-26 05:26,569.00,-32
1587871644,2020-04-26 05:27,571.00,-35
1587871704,2020-04-26 05:28,568.00,-36
1587871764,2020-04-26 05:29,570.00,-31
1587871824,2020-04-26 05:30,570.00,-32
1587871884,2020-04-26 05:31,571.00,-30
1587871944,2020-04-26 05:32,566.00,-30
1587872004,2020-04-26 05:33,569.00,-30
1587872064,2020-04-26 05:34,570.00,-32
1587872125,2020-04-26 05:35,570.00,-34
1587872185,2020-04-26 05:36,570.00,-32
1587872245,2020-04-26 05:37,574.00,-31
1587872305,2020-04-26 05:38,572.00,-30
1587872365,2020-04-26 05:39,574.00,-30
1587872425,2020-04-26 05:40,573.00,-30
1587872485,2020-04-26 05:41,574.00,-34
1587872545,2020-04-26 05:42,574.00,-32
1587872605,2020-04-26 05:43,573.00,-31
1587872665,2020-04-26 05:44,573.00,-34
1587872725,2020-04-26 05:45,572.00,-34
1587872785,2020-04-26 05:46,572.00,-30
1587872846,2020-04-26 05:47,574.00,-32
1587872906,2020-04-26 05:48,576.00,-32
1587872966,2020-04-26 05:49,575.00,-32
1587873026,2020-04-26 05:50,576.00,-34
1587873086,2020-04-26 05:51,574.00,-29
1587873149,2020-04-26 05:52,575.00,-30
1587873209,2020-04-26 05:53,575.00,-34
1587873269,2020-04-26 05:54,576.00,-32
1587873330,2020-04-26 05:55,575.00,-31
1587873390,2020-04-26 05:56,577.00,-33
1587873450,2020-04-26 05:57,581.00,-34
1587873510,2020-04-26 05:58,579.00,-32
1587873571,2020-04-26 05:59,580.00,-30
1587873631,2020-04-26 06:00,583.00,-32
1587873691,2020-04-26 06:01,580.00,-36
1587873752,2020-04-26 06:02,578.00,-32
1587873812,2020-04-26 06:03,579.00,-35
1587873872,2020-04-26 06:04,576.00,-30
1587873932,2020-04-26 06:05,579.00,-32
1587873993,2020-04-26 06:06,579.00,-34
1587874053,2020-04-26 06:07,581.00,-32
1587874113,2020-04-26 06:08,578.00,-31
1587874173,2020-04-26 06:09,576.00,-32
1587874234,2020-04-26 06:10,577.00,-32
1587874294,2020-04-26 06:11,578.00,-32
1587874354,2020-04-26 06:12,581.00,-35
1587874415,2020-04-26 06:13,580.00,-35
1587874475,2020-04-26 06:14,579.00,-32
1587874535,2020-04-26 06:15,578.00,-34
1587874595,2020-04-26 06:16,580.00,-34
1587874656,2020-04-26 06:17,582.00,-32
1587874716,2020-04-26 06:18,579.00,-33
1587874776,2020-04-26 06:19,578.00,-33
1587874836,2020-04-26 06:20,579.00,-34
1587874897,2020-04-26 06:21,577.00,-31
1587874957,2020-04-26 06:22,578.00,-33
1587875017,2020-04-26 06:23,579.00,-32
1587875078,2020-04-26 06:24,579.00,-37
1587875138,2020-04-26 06:25,580.00,-34
1587875198,2020-04-26 06:26,580.00,-32
1587875258,2020-04-26 06:27,580.00,-31
1587875319,2020-04-26 06:28,579.00,-32
1587875379,2020-04-26 06:29,579.00,-34
1587875439,2020-04-26 06:30,580.00,-34
1587875499,2020-04-26 06:31,579.00,-38
1587875560,2020-04-26 06:32,579.00,-31
1587875620,2020-04-26 06:33,579.00,-34
1587875680,2020-04-26 06:34,579.00,-32
1587875741,2020-04-26 06:35,578.00,-30
1587875801,2020-04-26 06:36,581.00,-35
1587875861,2020-04-26 06:37,583.00,-34
1587875921,2020-04-26 06:38,578.00,-31
1587875982,2020-04-26 06:39,579.00,-31
1587876042,2020-04-26 06:40,580.00,-34
1587876102,2020-04-26 06:41,582.00,-33
1587876162,2020-04-26 06:42,577.00,-34
1587876223,2020-04-26 06:43,578.00,-33
1587876283,2020-04-26 06:44,579.00,-37
1587876343,2020-04-26 06:45,578.00,-35
1587876404,2020-04-26 06:46,579.00,-33
1587876464,2020-04-26 06:47,578.00,-35
1587876524,2020-04-26 06:48,577.00,-31
1587876584,2020-04-26 06:49,577.00,-28
1587876645,2020-04-26 06:50,580.00,-31
1587876705,2020-04-26 06:51,580.00,-30
1587876765,2020-04-26 06:52,585.00,-31
1587877058,2020-04-26 06:57,579.00,-32
1587877118,2020-04-26 06:58,581.00,-30
1587877178,2020-04-26 06:59,582.00,-29
1587877239,2020-04-26 07:00,584.00,-31
1587877299,2020-04-26 07:01,583.00,-33
1587877359,2020-04-26 07:02,580.00,-37
1587877419,2020-04-26 07:03,584.00,-36
1587877480,2020-04-26 07:04,585.00,-31
1587877540,2020-04-26 07:05,586.00,-31
1587877600,2020-04-26 07:06,586.00,-32
1587877660,2020-04-26 07:07,584.00,-31
1587877721,2020-04-26 07:08,580.00,-30
1587877781,2020-04-26 07:09,578.00,-36
1587877841,2020-04-26 07:10,577.00,-35
1587877902,2020-04-26 07:11,579.00,-33
1587877962,2020-04-26 07:12,582.00,-31
1587878022,2020-04-26 07:13,582.00,-34
1587878082,2020-04-26 07:14,582.00,-31
1587878143,2020-04-26 07:15,583.00,-33
1587878203,2020-04-26 07:16,582.00,-34
1587878263,2020-04-26 07:17,582.00,-32
1587878324,2020-04-26 07:18,582.00,-34
1587878384,2020-04-26 07:19,581.00,-34
1587878444,2020-04-26 07:20,583.00,-31
1587878504,2020-04-26 07:21,582.00,-33
1587878565,2020-04-26 07:22,582.00,-28
1587878625,2020-04-26 07:23,582.00,-34
1587878685,2020-04-26 07:24,584.00,-33
1587878745,2020-04-26 07:25,581.00,-33
1587878806,2020-04-26 07:26,582.00,-34
1587878866,2020-04-26 07:27,581.00,-32
1587878926,2020-04-26 07:28,582.00,-33
1587878987,2020-04-26 07:29,581.00,-32
1587879047,2020-04-26 07:30,583.00,-34
1587879107,2020-04-26 07:31,582.00,-32
1587879167,2020-04-26 07:32,579.00,-30
1587879228,2020-04-26 07:33,582.00,-32
1587879288,2020-04-26 07:34,580.00,-33
1587879348,2020-04-26 07:35,581.00,-35
1587879408,2020-04-26 07:36,579.00,-31
1587879469,2020-04-26 07:37,576.00,-32
1587879529,2020-04-26 07:38,576.00,-33
1587879589,2020-04-26 07:39,576.00,-34
1587879650,2020-04-26 07:40,574.00,-34
1587879710,2020-04-26 07:41,575.00,-30
1587879770,2020-04-26 07:42,576.00,-35
1587879830,2020-04-26 07:43,576.00,-36
1587879891,2020-04-26 07:44,577.00,-33
1587879951,2020-04-26 07:45,573.00,-30
1587880011,2020-04-26 07:46,573.00,-36
1587880071,2020-04-26 07:47,573.00,-29
1587880132,2020-04-26 07:48,573.00,-33
1587880192,2020-04-26 07:49,570.00,-31
1587880252,2020-04-26 07:50,570.00,-30
1587880312,2020-04-26 07:51,572.00,-34
1587880373,2020-04-26 07:52,570.00,-38
1587880433,2020-04-26 07:53,568.00,-36
1587880493,2020-04-26 07:54,574.00,-32
1587880553,2020-04-26 07:55,568.00,-32
1587880614,2020-04-26 07:56,569.00,-33
1587880674,2020-04-26 07:57,566.00,-34
1587880734,2020-04-26 07:58,567.00,-34
1587880794,2020-04-26 07:59,566.00,-37
1587880855,2020-04-26 08:00,566.00,-33
1587880915,2020-04-26 08:01,564.00,-33
1587880975,2020-04-26 08:02,562.00,-33
1587881036,2020-04-26 08:03,563.00,-34
1587881096,2020-04-26 08:04,562.00,-32
1587881156,2020-04-26 08:05,565.00,-30
1587881216,2020-04-26 08:06,568.00,-32
1587881277,2020-04-26 08:07,565.00,-32
1587881337,2020-04-26 08:08,570.00,-31
1587881397,2020-04-26 08:09,565.00,-32
1587881457,2020-04-26 08:10,563.00,-35
1587881518,2020-04-26 08:11,563.00,-33
1587881578,2020-04-26 08:12,565.00,-36
1587881638,2020-04-26 08:13,564.00,-36
1587881698,2020-04-26 08:14,560.00,-38
1587881759,2020-04-26 08:15,560.00,-31
1587881819,2020-04-26 08:16,561.00,-32
1587881879,2020-04-26 08:17,555.00,-37
1587881939,2020-04-26 08:18,558.00,-35
1587882000,2020-04-26 08:20,555.00,-30
1587882060,2020-04-26 08:21,556.00,-32
1587882120,2020-04-26 08:22,554.00,-38
1587882181,2020-04-26 08:23,557.00,-35
1587882241,2020-04-26 08:24,555.00,-32
1587882301,2020-04-26 08:25,558.00,-36
1587882361,2020-04-26 08:26,555.00,-34
1587882422,2020-04-26 08:27,555.00,-35
1587882482,2020-04-26 08:28,555.00,-39
1587882542,2020-04-26 08:29,554.00,-31
1587882602,2020-04-26 08:30,555.00,-34
1587882663,2020-04-26 08:31,556.00,-36
1587882723,2020-04-26 08:32,557.00,-38
1587882783,2020-04-26 08:33,558.00,-42
1587882844,2020-04-26 08:34,556.00,-32
1587882904,2020-04-26 08:35,559.00,-39
1587882964,2020-04-26 08:36,557.00,-33
1587883024,2020-04-26 08:37,559.00,-39
1587883085,2020-04-26 08:38,559.00,-32
1587883145,2020-04-26 08:39,559.00,-37
1587883205,2020-04-26 08:40,560.00,-35
1587883265,2020-04-26 08:41,557.00,-36
1587883326,2020-04-26 08:42,560.00,-38
1587883386,2020-04-26 08:43,560.00,-34
1587883446,2020-04-26 08:44,559.00,-34
1587883507,2020-04-26 08:45,557.00,-38
1587883567,2020-04-26 08:46,557.00,-34
1587883627,2020-04-26 08:47,558.00,-31
1587883687,2020-04-26 08:48,552.00,-32
1587883748,2020-04-26 08:49,555.00,-34
1587883808,2020-04-26 08:50,555.00,-32
1587883868,2020-04-26 08:51,554.00,-31
1587883928,2020-04-26 08:52,556.00,-34
1587883989,2020-04-26 08:53,557.00,-30
1587884049,2020-04-26 08:54,559.00,-30
1587884109,2020-04-26 08:55,556.00,-35
1587884169,2020-04-26 08:56,557.00,-32
1587884230,2020-04-26 08:57,558.00,-31
1587884290,2020-04-26 08:58,556.00,-32
1587884350,2020-04-26 08:59,556.00,-41
1587884411,2020-04-26 09:00,557.00,-31
1587884471,2020-04-26 09:01,556.00,-32
1587884531,2020-04-26 09:02,551.00,-31
1587884591,2020-04-26 09:03,551.00,-30
1587884652,2020-04-26 09:04,551.00,-33
1587884712,2020-04-26 09:05,551.00,-33
1587884772,2020-04-26 09:06,550.00,-29
1587884833,2020-04-26 09:07,550.00,-32
1587884893,2020-04-26 09:08,549.00,-32
1587884953,2020-04-26 09:09,553.00,-32
1587885013,2020-04-26 09:10,553.00,-36
1587885074,2020-04-26 09:11,551.00,-37
1587885134,2020-04-26 09:12,552.00,-35
1587885194,2020-04-26 09:13,549.00,-35
1587885254,2020-04-26 09:14,548.00,-36
1587885315,2020-04-26 09:15,549.00,-33
1587885375,2020-04-26 09:16,547.00,-33
1587885435,2020-04-26 09:17,550.00,-35
1587885496,2020-04-26 09:18,551.00,-32
1587885556,2020-04-26 09:19,546.00,-31
1587885616,2020-04-26 09:20,549.00,-33
1587885676,2020-04-26 09:21,548.00,-33
1587885737,2020-04-26 09:22,544.00,-30
1587885797,2020-04-26 09:23,546.00,-33
1587885857,2020-04-26 09:24,540.00,-33
1587885917,2020-04-26 09:25,543.00,-32
1587885978,2020-04-26 09:26,541.00,-33
1587886038,2020-04-26 09:27,543.00,-34
1587886098,2020-04-26 09:28,545.00,-29
1587886159,2020-04-26 09:29,546.00,-29
1587886219,2020-04-26 09:30,545.00,-32
1587886279,2020-04-26 09:31,544.00,-34
1587886339,2020-04-26 09:32,547.00,-32
1587886400,2020-04-26 09:33,545.00,-32
1587886460,2020-04-26 09:34,548.00,-37
1587886520,2020-04-26 09:35,550.00,-32
1587886581,2020-04-26 09:36,550.00,-30
1587886641,2020-04-26 09:37,550.00,-33
1587886701,2020-04-26 09:38,551.00,-36
1587886761,2020-04-26 09:39,547.00,-30
1587886821,2020-04-26 09:40,548.00,-32
1587886881,2020-04-26 09:41,543.00,-30
1587886941,2020-04-26 09:42,545.00,-29
1587887001,2020-04-26 09:43,548.00,-31
1587887061,2020-04-26 09:44,547.00,-34
1587887122,2020-04-26 09:45,546.00,-33
1587887182,2020-04-26 09:46,543.00,-32
1587887242,2020-04-26 09:47,545.00,-30
1587887302,2020-04-26 09:48,543.00,-32
1587887362,2020-04-26 09:49,544.00,-36
1587887422,2020-04-26 09:50,546.00,-31
1587887482,2020-04-26 09:51,545.00,-35
1587887542,2020-04-26 09:52,547.00,-34
1587887602,2020-04-26 09:53,546.00,-37
1587887662,2020-04-26 09:54,545.00,-34
1587887722,2020-04-26 09:55,548.00,-37
1587887782,2020-04-26 09:56,550.00,-40
1587887843,2020-04-26 09:57,549.00,-33
1587887903,2020-04-26 09:58,544.00,-33
1587887963,2020-04-26 09:59,548.00,-29
1587888023,2020-04-26 10:00,548.00,-32
1587888083,2020-04-26 10:01,547.00,-31
1587888143,2020-04-26 10:02,546.00,-34
1587888203,2020-04-26 10:03,543.00,-33
1587888263,2020-04-26 10:04,545.00,-35
1587888323,2020-04-26 10:05,547.00,-34
1587888383,2020-04-26 10:06,546.00,-36
1587888443,2020-04-26 10:07,549.00,-35
1587888503,2020-04-26 10:08,549.00,-33
1587888564,2020-04-26 10:09,551.00,-31
1587888624,2020-04-26 10:10,553.00,-36
1587888684,2020-04-26 10:11,550.00,-36
1587888744,2020-04-26 10:12,550.00,-36
1587888804,2020-04-26 10:13,551.00,-31
1587888864,2020-04-26 10:14,550.00,-32
1587888924,2020-04-26 10:15,550.00,-34
1587888984,2020-04-26 10:16,550.00,-34
1587889044,2020-04-26 10:17,551.00,-39
1587889104,2020-04-26 10:18,548.00,-32
1587889164,2020-04-26 10:19,554.00,-34
1587889224,2020-04-26 10:20,552.00,-37
1587889285,2020-04-26 10:21,548.00,-35
1587889345,2020-04-26 10:22,547.00,-32
1587889405,2020-04-26 10:23,548.00,-34
1587889465,2020-04-26 10:24,548.00,-35
1587889525,2020-04-26 10:25,550.00,-36
1587889585,2020-04-26 10:26,552.00,-33